Location: Artiguedieu
(43.5000°N, 0.5454°E)
Time: 21:18:29
(UTC+00:00)

Vanguard 1 - Pass Details

Date: 06 August 2021
Orbit: 652 x 3831 km, 34.3° (Epoch: 19 September)

Event Time Altitude Azimuth Distance (km) Brightness Sun altitude
Rises 12:33:25 0° 260° (W) 3,174 12.9 62.3°
Reaches altitude 10° 12:35:41 10° 249° (WSW) 2,420 12.5 62.2°
Maximum altitude 12:40:36 31° 187° (S) 1,769 12.6 61.9°
Drops below altitude 10° 12:48:07 10° 129° (SE) 3,782 13.3 61.4°
Sets 12:52:41 0° 121° (ESE) 5,324 13.9 61.1°
